Tracking 17694 objects as of 29-May-2016
HD Live streaming from Space Station
objects crossing your sky now

COSMOS 2251 DEB

Track COSMOS 2251 DEB now!
10-day predictions


NORAD ID: 33899
Int'l Code: 1993-036DC
Perigee: 692.7 km
Apogee: 803.0 km
Inclination: 74.1 °
Period: 99.6 minutes
Semi major axis: 7118 km
RCS: 0.032 m2 (small)
Launch date: June 16, 1993
Source: Commonwealth of Independent States (former USSR) (CIS)
Launch site: PLESETSK MISSILE AND SPACE COMPLEX (PKMTR)

Note: This is SATELLITE DEBRIS
Your satellite tracking list
Your tracking list is empty





NASA's NSSDC Master Catalog

Two Line Element Set (TLE):
1 33899U 93036DC  16150.19919025  .00000649  00000-0  18557-3 0  9990
2 33899  74.0577 129.6317 0077486 358.2797 107.7563 14.45402473383788
Source of the keplerian elements: AFSPC

N2YO: 602